FW1247 Weather Reports


time (UTC)temp
C
wind
direction
speed
KPH
gust
KPH
rain 1hr
cm
rain 24hr
cm
rain mn
cm
humidity
%
barometer
mb
20260904210104 15 290 16.1 29.0 0.00 1.24 1.24 86 1000.5
20260904204559 15 278 17.7 35.4 0.00 1.24 1.24 85 1000.3
20260904203057 15 285 16.1 33.8 0.00 1.24 1.24 85 1000.1
20260904201554 15 287 14.5 30.6 0.00 1.24 1.24 86 1000.1
20260904200052 15 274 20.9 37.0 0.00 1.24 1.24 86 999.9
20260904194550 15 276 17.7 29.0 0.00 1.24 1.24 86 999.8
20260904193049 15 234 20.9 30.6 0.00 1.24 1.24 87 999.5
20260904191548 15 286 17.7 38.6 0.00 1.24 1.24 87 999.3
20260904190046 16 286 19.3 37.0 0.00 1.24 1.24 86 999.1
20260904184544 16 318 22.5 38.6 0.00 1.27 1.24 88 998.7
20260904183044 16 286 14.5 27.4 0.00 1.27 1.24 91 998.6
20260904181543 16 278 16.1 32.2 0.00 1.27 1.24 92 998.2
20260904180041 16 252 20.9 33.8 0.00 1.27 1.24 92 998.0
20260904174540 16 286 25.7 40.2 0.00 1.65 1.24 94 997.6
20260904173039 16 244 16.1 35.4 0.18 1.65 1.24 95 997.0
20260904171535 16 292 12.9 29.0 0.25 1.65 1.24 95 997.0
20260904170033 16 215 11.3 19.3 0.28 1.65 1.24 95 996.9
20260904164532 16 205 11.3 25.7 0.30 1.65 1.24 94 997.1
20260904163033 17 262 9.7 17.7 0.13 1.42 1.07 94 997.0
20260904161530 17 189 11.3 24.1 0.05 1.37 0.99 93 997.1
20260904160030 17 236 11.3 19.3 0.03 1.37 0.97 92 997.2
20260904154529 17 201 12.9 25.7 0.00 1.35 0.94 93 997.4
20260904153028 17 199 8.0 19.3 0.00 1.35 0.94 93 997.3
20260904151527 17 277 9.7 17.7 0.00 1.35 0.94 94 997.2
20260904150027 17 275 6.4 16.1 0.00 1.35 0.94 94 997.4
20260904144526 17 271 8.0 22.5 0.00 1.35 0.94 94 997.4
20260904143023 17 273 11.3 22.5 0.00 1.35 0.94 95 997.4
20260904141523 17 260 9.7 25.7 0.10 1.35 0.94 95 997.6
20260904140022 17 254 8.0 27.4 0.13 1.35 0.94 95 997.2
20260904134526 17 179 16.1 33.8 0.13 1.35 0.94 96 997.1
20260904133019 17 286 6.4 17.7 0.13 1.35 0.94 96 997.1
20260904131518 17 286 4.8 11.3 0.00 1.22 0.81 95 997.4
20260904130036 16 236 4.8 22.5 0.03 1.22 0.81 95 997.4
20260904124521 16 231 9.7 19.3 0.08 1.22 0.81 96 997.0
20260904123023 16 265 6.4 19.3 0.15 1.22 0.81 96 997.2
20260904121515 16 234 11.3 25.7 0.20 1.22 0.81 96 997.0
20260904120011 16 250 11.3 25.7 0.23 1.19 0.79 96 997.6
20260904114509 16 203 12.9 19.3 0.23 1.17 0.71 96 997.7
20260904113008 17 186 12.9 22.5 0.18 1.09 0.66 96 997.9
20260904111507 17 212 8.0 16.1 0.18 1.07 0.61 96 997.9
20260904110006 16 185 6.4 12.9 0.15 0.99 0.56 96 997.9
20260904104514 16 171 6.4 14.5 0.15 0.99 0.51 96 997.9
20260904103004 16 198 4.8 16.1 0.10 0.94 0.48 96 998.2
20260904101502 16 157 6.4 12.9 0.08 0.89 0.43 96 998.4
20260904100059 16 164 4.8 9.7 0.08 0.89 0.43 96 998.7
20260904094556 16 182 9.7 14.5 0.05 0.89 0.38 96 999.2
20260904093055 16 155 6.4 12.9 0.05 0.89 0.38 96 999.4
20260904091554 16 155 6.4 14.5 0.05 0.89 0.36 96 1000.0
20260904090052 16 145 9.7 19.3 0.08 0.86 0.33 96 1000.2
20260904084549 16 162 8.0 17.7 0.13 0.84 0.33 96 1000.2
20260904083047 16 182 6.4 14.5 0.15 0.84 0.33 95 1000.5
20260904081552 16 186 4.8 12.9 0.18 0.81 0.30 95 1000.9
20260904080044 16 201 9.7 19.3 0.18 0.79 0.25 95 1001.1
20260904074539 16 179 8.0 14.5 0.15 0.84 0.20 95 1001.3
20260904073035 16 211 3.2 14.5 0.13 0.79 0.15 94 1001.4
20260904071534 16 164 4.8 12.9 0.10 0.76 0.13 94 1001.6
20260904070033 16 175 6.4 14.5 0.05 0.71 0.08 94 1001.7
20260904064532 16 196 3.2 8.0 0.05 1.04 0.05 94 1001.7
20260904063035 16 221 3.2 8.0 0.03 1.02 0.05 94 1001.9
20260904061539 16 198 4.8 12.9 0.00 0.99 0.03 94 1002.0
20260904060025 16 187 6.4 12.9 0.03 0.99 0.03 93 1002.3
20260904054523 16 193 8.0 17.7 0.03 1.04 0.03 93 1002.5
20260904053018 16 219 11.3 24.1 0.03 1.04 0.03 93 1002.9
20260904051515 16 225 9.7 16.1 0.03 1.04 0.03 93 1003.1
20260904050018 16 190 6.4 14.5 0.00 1.02 0.00 92 1003.1
20260904044509 16 198 4.8 14.5 0.00 1.04 0.00 91 1003.4
20260904043008 16 201 9.7 19.3 0.00 1.04 0.00 90 1003.8
20260904041506 16 221 8.0 16.1 0.00 1.04 0.00 90 1003.8
20260904040008 16 211 11.3 16.1 0.00 1.04 0.00 89 1003.8
20260904034503 16 242 8.0 29.0 0.00 1.09 0.00 90 1004.0
20260904033101 16 196 6.4 17.7 0.00 1.09 0.00 91 1004.5
20260904031558 17 221 8.0 16.1 0.00 1.09 0.00 90 1004.4
20260904030107 17 216 8.0 16.1 0.00 1.09 0.00 90 1004.5
20260904024557 17 232 9.7 19.3 0.00 1.09 0.00 89 1004.6
20260904023054 17 201 9.7 16.1 0.00 1.09 0.00 89 1004.7
20260904021552 17 288 9.7 22.5 0.00 1.09 0.00 88 1005.0
20260904020052 17 196 6.4 27.4 0.00 1.09 0.00 88 1005.0
20260904014556 17 232 11.3 24.1 0.00 1.09 0.00 89 1004.8
20260904013048 17 228 8.0 22.5 0.00 1.09 0.00 88 1004.9
20260904011544 17 254 11.3 24.1 0.00 1.09 0.00 88 1005.0
20260904010043 17 239 11.3 20.9 0.00 1.09 0.00 88 1005.1
20260904004541 17 237 11.3 22.5 0.00 1.09 0.00 88 1005.3
20260904003042 17 216 12.9 24.1 0.00 1.09 0.00 88 1005.3
20260904001536 17 244 9.7 24.1 0.00 1.09 0.00 88 1005.4
20260904000034 17 205 8.0 20.9 0.00 1.09 0.00 89 1005.6
20260903234533 17 284 8.0 22.5 0.00 1.09 0.00 90 1005.5
20260903233029 17 242 9.7 19.3 0.00 1.09 0.00 90 1005.5
20260903231531 17 223 8.0 19.3 0.00 1.09 0.00 91 1005.5
20260903230030 17 280 8.0 19.3 0.00 1.09 0.00 91 1005.6
20260903224528 17 212 6.4 16.1 0.00 1.09 0.00 91 1005.8
20260903223021 17 284 4.8 20.9 0.00 1.09 0.00 91 1006.0
20260903221521 17 254 8.0 16.1 0.00 1.09 0.00 91 1006.0
20260903220018 17 240 8.0 16.1 0.00 1.09 0.00 91 1005.9
20260903214528 17 248 6.4 17.7 0.00 1.09 1.09 92 1005.9
20260903213016 17 232 6.4 20.9 0.00 1.09 1.09 92 1005.9
20260903211515 17 248 6.4 16.1 0.00 1.09 1.09 92 1005.9